This is the latest recevied weather packets stored in our database for station/object N4WFF. If no packets are shown the sender has not sent any weather packets the latest 10 day(s).
| Time | Temp. | Humidity | Pressure | Rain* | Wind** | Luminosity | Snow |
|---|---|---|---|---|---|---|---|
| 1778027155 | 23.33° C | 70% | 1013.9 hPa | 0 mm | - | 4 W/m² | - |
| 1778026856 | 23.33° C | 70% | 1013.9 hPa | 0 mm | - | 7 W/m² | - |
| 1778026555 | 23.89° C | 69% | 1013.9 hPa | 0 mm | - | 10 W/m² | - |
| 1778026255 | 23.89° C | 69% | 1013.8 hPa | 0 mm | - | 13 W/m² | - |
| 1778025956 | 23.89° C | 68% | 1013.8 hPa | 0 mm | - | 17 W/m² | - |
| 1778025655 | 24.44° C | 67% | 1013.8 hPa | 0 mm | - | 26 W/m² | - |
| 1778025356 | 24.44° C | 66% | 1013.8 hPa | 0 mm | - | 38 W/m² | - |
| 1778025056 | 24.44° C | 65% | 1013.8 hPa | 0 mm | - | 50 W/m² | - |
| 1778024756 | 25° C | 65% | 1013.6 hPa | 0 mm | - | 50 W/m² | - |
| 1778024456 | 25° C | 64% | 1013.6 hPa | 0 mm | - | 47 W/m² | - |
| 1778024156 | 25° C | 63% | 1013.6 hPa | 0 mm | - | 52 W/m² | - |
| 1778023856 | 25.56° C | 61% | 1013.6 hPa | 0 mm | - | 64 W/m² | - |
| 1778023555 | 25.56° C | 61% | 1013.5 hPa | 0 mm | - | 113 W/m² | - |
| 1778023256 | 25.56° C | 61% | 1013.4 hPa | 0 mm | - | 92 W/m² | - |
| 1778022956 | 25.56° C | 61% | 1013.4 hPa | 0 mm | - | 88 W/m² | - |
| 1778022655 | 25.56° C | 61% | 1013.4 hPa | 0 mm | - | 121 W/m² | - |
| 1778022356 | 25.56° C | 61% | 1013.4 hPa | 0 mm | - | 106 W/m² | - |
| 1778022056 | 25.56° C | 60% | 1013.5 hPa | 0 mm | - | 142 W/m² | - |
| 1778021755 | 25.56° C | 60% | 1013.6 hPa | 0 mm | - | 185 W/m² | - |
| 1778021455 | 26.11° C | 59% | 1013.6 hPa | 0 mm | - | 57 W/m² | - |
| 1778021155 | 26.67° C | 58% | 1013.6 hPa | 0 mm | - | 88 W/m² | - |
| 1778020855 | 26.67° C | 58% | 1013.6 hPa | 0 mm | - | 105 W/m² | - |
| 1778020556 | 26.11° C | 58% | 1013.6 hPa | 0 mm | - | 266 W/m² | - |
| 1778020257 | 26.11° C | 59% | 1013.5 hPa | 0 mm | - | 229 W/m² | - |
| 1778019956 | 25.56° C | 60% | 1013.5 hPa | 0 mm | - | 182 W/m² | - |
* Rain latest hour (hover to see other rain measurements)
** Current wind speed in m/s (hover to see current wind gust speed)